Location: Chircca
(13.7944°S, 72.0608°W)
Time: 06:21:51
(UTC+00:00)

YAOGAN 6 - Pass Details

Date: 14 July 2020
Orbit: 465 x 504 km, 97.0° (Epoch: 14 August)

Event Time Altitude Azimuth Distance (km) Brightness Sun altitude
Rises 10:15:27 0° 26° (NNE) 2,550 7.0 -13.9°
Reaches altitude 10° 10:17:38 10° 35° (NE) 1,668 6.1 -13.4°
Maximum altitude 10:20:56 35° 102° (ESE) 796 4.2 -12.6°
Drops below altitude 10° 10:24:14 10° 169° (S) 1,664 5.2 -11.9°
Sets 10:26:24 0° 178° (S) 2,542 6.0 -11.4°
